| time (UTC) | temp C | wind direction | speed KPH | gust KPH | rain 1hr cm | rain 24hr cm | rain mn cm | humidity % | barometer mb |
| 20260505014503 | 24 | 164 | 0.0 | 3.2 | 0.00 | 0.00 | 0.00 | 58 | 1004.5 |
| 20260505013100 | 24 | 141 | 0.0 | 3.2 | 0.00 | 0.00 | 0.00 | 59 | 1004.7 |
| 20260505011600 | 25 | 192 | 0.0 | 4.8 | 0.00 | 0.00 | 0.00 | 59 | 1004.7 |
| 20260505010104 | 25 | 72 | 0.0 | 3.2 | 0.00 | 0.00 | 0.00 | 59 | 1004.7 |
| 20260505004559 | 25 | 148 | 0.0 | 4.8 | 0.00 | 0.00 | 0.00 | 59 | 1004.7 |
| 20260505003104 | 25 | 158 | 0.0 | 3.2 | 0.00 | 0.00 | 0.00 | 59 | 1004.8 |
| 20260505001558 | 25 | 160 | 0.0 | 6.4 | 0.00 | 0.00 | 0.00 | 59 | 1004.9 |
| 20260505000058 | 25 | 217 | 0.0 | 8.0 | 0.00 | 0.00 | 0.00 | 59 | 1005.0 |
| 20260504234555 | 25 | 148 | 0.0 | 9.7 | 0.00 | 0.00 | 0.00 | 59 | 1005.1 |
| 20260504233057 | 25 | 150 | 0.0 | 8.0 | 0.00 | 0.00 | 0.00 | 59 | 1005.2 |
| 20260504231552 | 26 | 207 | 0.0 | 4.8 | 0.00 | 0.00 | 0.00 | 59 | 1005.3 |
| 20260504230052 | 26 | 170 | 0.0 | 6.4 | 0.00 | 0.00 | 0.00 | 59 | 1005.2 |
| 20260504224550 | 26 | 242 | 0.0 | 6.4 | 0.00 | 0.00 | 0.00 | 58 | 1005.8 |
| 20260504223102 | 26 | 155 | 0.0 | 6.4 | 0.00 | 0.00 | 0.00 | 58 | 1005.7 |
| 20260504221548 | 27 | 187 | 0.0 | 6.4 | 0.00 | 0.00 | 0.00 | 56 | 1005.8 |
| 20260504220047 | 27 | 151 | 0.0 | 11.3 | 0.00 | 0.00 | 0.00 | 56 | 1005.8 |
| 20260504214545 | 28 | 170 | 0.0 | 4.8 | 0.00 | 0.00 | 0.00 | 55 | 1005.9 |
| 20260504213044 | 28 | 340 | 0.0 | 8.0 | 0.00 | 0.00 | 0.00 | 55 | 1006.2 |
| 20260504211611 | 29 | 155 | 0.0 | 4.8 | 0.00 | 0.00 | 0.00 | 54 | 1006.3 |
| 20260504210045 | 29 | 60 | 1.6 | 6.4 | 0.00 | 0.00 | 0.00 | 52 | 1006.5 |
| 20260504204537 | 29 | 215 | 0.0 | 4.8 | 0.00 | 0.00 | 0.00 | 52 | 1007.0 |
| 20260504203034 | 28 | 191 | 1.6 | 8.0 | 0.00 | 0.00 | 0.00 | 53 | 1007.1 |
| 20260504201531 | 28 | 143 | 0.0 | 4.8 | 0.00 | 0.00 | 0.00 | 53 | 1007.6 |
| 20260504200028 | 28 | 165 | 0.0 | 3.2 | 0.00 | 0.00 | 0.00 | 53 | 1007.9 |
| 20260504194527 | 28 | 160 | 0.0 | 4.8 | 0.00 | 0.00 | 0.00 | 53 | 1008.3 |
| 20260504193027 | 28 | 186 | 0.0 | 6.4 | 0.00 | 0.00 | 0.00 | 51 | 1008.5 |
| 20260504191525 | 28 | 197 | 0.0 | 6.4 | 0.00 | 0.00 | 0.00 | 53 | 1008.7 |
| 20260504190020 | 28 | 159 | 0.0 | 4.8 | 0.00 | 0.00 | 0.00 | 51 | 1009.0 |
| 20260504184521 | 28 | 184 | 0.0 | 4.8 | 0.00 | 0.00 | 0.00 | 53 | 1009.3 |
| 20260504183015 | 27 | 131 | 0.0 | 6.4 | 0.00 | 0.00 | 0.00 | 53 | 1009.4 |
| 20260504181512 | 27 | 160 | 0.0 | 4.8 | 0.00 | 0.00 | 0.00 | 53 | 1009.7 |
| 20260504180012 | 27 | 200 | 0.0 | 3.2 | 0.00 | 0.00 | 0.00 | 52 | 1009.9 |
| 20260504174507 | 27 | 194 | 0.0 | 6.4 | 0.00 | 0.00 | 0.00 | 53 | 1010.1 |
| 20260504173005 | 26 | 197 | 1.6 | 6.4 | 0.00 | 0.00 | 0.00 | 52 | 1010.2 |
| 20260504171501 | 26 | 148 | 0.0 | 4.8 | 0.00 | 0.00 | 0.00 | 54 | 1010.5 |
| 20260504081553 | 17 | 155 | 0.0 | 4.8 | 0.00 | 0.00 | 0.00 | 61 | 1012.7 |
| 20260504044520 | 20 | 154 | 0.0 | 1.6 | 0.00 | 0.00 | 0.00 | 54 | 1014.8 |
| 20260504043027 | 20 | 148 | 0.0 | 1.6 | 0.00 | 0.00 | 0.00 | 53 | 1015.0 |
| 20260504041522 | 20 | 167 | 0.0 | 1.6 | 0.00 | 0.00 | 0.00 | 52 | 1015.0 |
| 20260504040002 | 21 | 153 | 0.0 | 1.6 | 0.00 | 0.00 | 0.00 | 50 | 1015.1 |
| 20260504034502 | 21 | 152 | 0.0 | 1.6 | 0.00 | 0.00 | 0.00 | 50 | 1014.9 |
| 20260504033100 | 21 | 146 | 0.0 | 4.8 | 0.00 | 0.00 | 0.00 | 50 | 1014.9 |
| 20260504031623 | 21 | 144 | 0.0 | 1.6 | 0.00 | 0.00 | 0.00 | 50 | 1015.0 |
| 20260504030059 | 21 | 158 | 0.0 | 1.6 | 0.00 | 0.00 | 0.00 | 50 | 1014.8 |
| 20260504024604 | 21 | 152 | 0.0 | 3.2 | 0.00 | 0.00 | 0.00 | 49 | 1014.8 |
| 20260504023059 | 22 | 131 | 0.0 | 3.2 | 0.00 | 0.00 | 0.00 | 47 | 1014.7 |
| 20260504021558 | 22 | 145 | 0.0 | 1.6 | 0.00 | 0.00 | 0.00 | 46 | 1014.6 |
| 20260504020110 | 22 | 155 | 0.0 | 1.6 | 0.00 | 0.00 | 0.00 | 43 | 1014.7 |